delijn.be alexa rank chart, delijn.be alexa rank daily changes

delijn.be alexa rank chart, delijn.be alexa rank daily changes

delijn.be
Actual rank:
34 769

RANK HISTORY

Date Rank Diff
2017/04/25 34 769 -15
2017/04/24 34 784 +82
2017/04/23 34 702 -24
2017/04/22 34 726 -733
2017/04/21 35 459 -59
2017/04/20 35 518 -633
2017/04/19 36 151 -514
2017/04/18 36 665 +174
2017/04/17 36 491 -548
2017/04/16 37 039 +202
2017/04/15 36 837 -338
2017/04/14 37 175 -264
2017/04/13 37 439 -173
2017/04/12 37 612 -40
2017/04/11 37 652 +60
2017/04/10 37 592 +738
2017/04/09 36 854 +148
2017/04/08 36 706 +138
2017/04/07 36 568 +349
2017/04/06 36 219 +391
2017/04/05 35 828 +61
2017/04/04 35 767 +405
2017/04/03 35 362 +220
2017/04/02 35 142 +14
2017/04/01 35 128 -381
2017/03/31 35 509 -173
2017/03/30 35 682 +95
2017/03/29 35 587 +785
2017/03/28 34 802 -90
2017/03/27 34 892 +400
2017/03/26 34 492 -107
2017/03/25 34 599 -378
2017/03/24 34 977 -122
2017/03/23 35 099 -417
2017/03/22 35 516 +419
2017/03/21 35 097 -400
2017/03/20 35 497 +248
2017/03/19 35 249 +75
2017/03/18 35 174 +77
2017/03/17 35 097 -123
2017/03/16 35 220 -205
2017/03/15 35 425 +163
2017/03/14 35 262 +104
2017/03/13 35 158 -89
2017/03/12 35 247 -91
2017/03/11 35 338 -441
2017/03/10 35 779 -578
2017/03/09 36 357 -223
2017/03/08 36 580 -1 319
2017/03/07 37 899 -1 387
2017/03/06 39 286 -350
2017/03/01 39 636 +161
2017/02/28 39 475 -380
2017/02/27 39 855 -989
2017/02/26 40 844 -298
2017/02/25 41 142 -71
2017/02/24 41 213

WIDGET FOR YOUR SITE

DOMAINS WITH THE NEAREST RANK

Domain Rank
esm3.com 34 764
amcharts.com 34 765
englishteststore.net 34 766
aom.org 34 767
lestream.fr 34 768
delijn.be 34 769
6781.com 34 770
humankinetics.com 34 771
cb-asahi.co.jp 34 772
myjetbrains.com 34 773
ieltsonlinetests.com 34 774

DOMAINS WITH THE NEAREST RANK BY TLD .be

Domain Rank
vandenborre.be 32 925
een.be 33 005
socialsecurity.be 33 174
crichd.be 34 247
flair.be 34 445
delijn.be 34 769
pro-express.be 34 876
orange.be 36 616
bwin.be 36 766
hubo.be 37 048
e-lotto.be 37 195